Tracking 19574 objects as of 16-Feb-2019
HD Live streaming from Space Station
objects crossing your sky now

FLOCK 3P 60

Track FLOCK 3P 60 now!
10-day predictions
FLOCK 3P 60 is classified as:


NORAD ID: 41976
Int'l Code: 2017-008AE
Perigee: 492.9 km
Apogee: 502.6 km
Inclination: 97.4 °
Period: 94.4 minutes
Semi major axis: 6868 km
RCS: Unknown
Launch date: February 15, 2017
Source: United States (US)
Launch site: SRIHARIKOTA (SRI)
aabbcc
Your satellite tracking list
Your tracking list is empty




NASA's NSSDC Master Catalog

Two Line Element Set (TLE):
1 41976U 17008AE  19046.73600898  .00001072  00000-0  45747-4 0  9995
2 41976  97.4223 114.9877 0007113 205.4845 154.6043 15.25055235110393
Source of the keplerian elements: AFSPC